Weather History for Tuscaloosa, AL

Change the Weather History Date:

Friday, July 26, 2013

  Actual Average Record
Temperature  
Mean Temperature 77 °F 82 °F  
Max Temperature 88 °F 92 °F 102 °F (1952)
Min Temperature 65 °F 72 °F 65 °F (2013)
Cooling Degree Days 10    
Growing Degree Days 26 (Base 50)    
Moisture  
Dew Point 68 °F    
Average Humidity 75    
Maximum Humidity 100    
Minimum Humidity 50    
Precipitation  
Precipitation 0.00 in 0.13 in 1.28 in (1971)
Month to date precipitation 6.83 3.77  
Year to date precipitation 34.47 31.94  
Sea Level Pressure  
Sea Level Pressure 30.02 in    
Wind  
Wind Speed 2 mph (West)    
Max Wind Speed 10 mph    
Max Gust Speed 14 mph    
Visibility 8 miles    
Events      
T = Trace of Precipitation, MM = Missing Value Source: NWS Daily Summary

Daily Weather History Graph

Daily Weather History Graph

Search for Another Location

Airport:

Trip Planner

Search our weather history database for the weather conditions in past years. The results will help you decide how hot, cold, wet, or windy it might be!

Date:

Astronomy

Jul. 26, 2013 Rise Set
Actual Time 5:59 AM CDT 7:54 PM CDT
Civil Twilight 5:32 AM CDT 8:21 PM CDT
Nautical Twilight 4:58 AM CDT 8:54 PM CDT
Astronomical Twilight 4:23 AM CDT 9:29 PM CDT
Moon 10:26 PM CDT (7/26) 10:17 AM CDT (7/26)
Length of Visible Light 14h 49m
Length of Day
13h 54m
Waning Gibbous, 80% of the Moon is Illuminated
Jul 26
Waning Gibbous
Jul 29
Last Quarter
Aug 6
New
Aug 14
First Quarter
Aug 20
Full

Hourly Weather History & Observations

Time (CDT) Temp. Heat Index Dew Point Humidity Pressure Visibility Wind Dir Wind Speed Gust Speed Precip Events Conditions
12:02 AM 71.6 °F - 68.0 °F 88% 30.03 in 9.0 mi Calm Calm - N/A   Partly Cloudy
12:53 AM 70.0 °F - 68.0 °F 93% 30.02 in 9.0 mi Calm Calm - N/A   Clear
1:53 AM 69.1 °F - 66.9 °F 93% 30.03 in 7.0 mi Calm Calm - N/A   Clear
2:53 AM 68.0 °F - 66.0 °F 93% 30.01 in 9.0 mi Calm Calm - N/A   Clear
3:53 AM 68.0 °F - 66.0 °F 93% 30.01 in 7.0 mi Calm Calm - N/A   Clear
4:53 AM 66.9 °F - 66.0 °F 97% 30.03 in 7.0 mi Calm Calm - N/A   Clear
5:53 AM 66.0 °F - 64.9 °F 96% 30.02 in 3.0 mi Calm Calm - N/A   Clear
6:01 AM 66.2 °F - 64.4 °F 94% 30.03 in 2.5 mi Calm Calm - N/A   Clear
6:09 AM 66.2 °F - 64.4 °F 94% 30.03 in 4.0 mi Calm Calm - N/A   Clear
6:13 AM 64.4 °F - 64.4 °F 100% 30.03 in 1.8 mi ENE 3.5 mph - N/A   Clear
6:24 AM 66.2 °F - 64.4 °F 94% 30.03 in 3.0 mi Calm Calm - N/A   Clear
6:53 AM 66.9 °F - 66.0 °F 97% 30.04 in 4.0 mi Calm Calm - N/A   Clear
7:53 AM 69.1 °F - 66.9 °F 93% 30.05 in 8.0 mi Calm Calm - N/A   Clear
8:53 AM 77.0 °F - 69.1 °F 76% 30.04 in 9.0 mi Variable 3.5 mph - N/A   Clear
9:53 AM 80.1 °F 82.7 °F 68.0 °F 67% 30.04 in 10.0 mi Calm Calm - N/A   Clear
10:53 AM 82.9 °F 85.8 °F 68.0 °F 60% 30.06 in 10.0 mi WSW 5.8 mph - N/A   Clear
11:53 AM 82.9 °F 85.0 °F 66.0 °F 56% 30.06 in 10.0 mi WSW 4.6 mph - N/A   Scattered Clouds
12:53 PM 84.9 °F 87.1 °F 66.0 °F 53% 30.04 in 10.0 mi Variable 3.5 mph - N/A   Clear
1:53 PM 86.0 °F 88.8 °F 66.9 °F 53% 30.02 in 10.0 mi WSW 4.6 mph - N/A   Clear
2:53 PM 87.1 °F 89.9 °F 66.9 °F 51% 30.01 in 10.0 mi Variable 4.6 mph - N/A   Partly Cloudy
3:53 PM 86.0 °F 90.1 °F 69.1 °F 57% 30.00 in 10.0 mi West 9.2 mph - N/A   Scattered Clouds
4:53 PM 84.9 °F 87.6 °F 66.9 °F 55% 30.00 in 10.0 mi WNW 6.9 mph - N/A   Clear
5:53 PM 82.9 °F 86.5 °F 69.1 °F 63% 30.00 in 10.0 mi West 4.6 mph - N/A   Clear
6:53 PM 81.0 °F 84.4 °F 70.0 °F 69% 29.99 in 10.0 mi WNW 3.5 mph - N/A   Clear
7:53 PM 80.1 °F 83.2 °F 70.0 °F 71% 29.98 in 10.0 mi Calm Calm - N/A   Clear
8:53 PM 77.0 °F - 71.1 °F 82% 29.98 in 10.0 mi Calm Calm - N/A   Clear
9:53 PM 75.0 °F - 71.1 °F 87% 29.98 in 9.0 mi Calm Calm - N/A   Clear
10:53 PM 75.0 °F - 72.0 °F 90% 29.97 in 7.0 mi Calm Calm - N/A   Clear
11:53 PM 73.9 °F - 72.0 °F 93% 29.97 in 7.0 mi Calm Calm - N/A   Clear